Central Point, OR

2:28 PM PST on February 26, 2017 (GMT -0800)
Rogue Valley International-Medford

Weather History for KMFR - November, 2014

Change the Weather History Date:

Thursday, November 13, 2014

  Actual Average Record
Temperature  
Mean Temperature 52 °F 45 °F  
Max Temperature 60 °F 54 °F 71 °F (1995)
Min Temperature 43 °F 37 °F 10 °F (1978)
Degree Days  
Heating Degree Days 13 20  
Month to date heating degree days 184 231  
Since 1 July heating degree days 353 591  
Cooling Degree Days 0 0  
Month to date cooling degree days 0 0  
Year to date cooling degree days 1238 829  
Growing Degree Days 2 (Base 50)    
Moisture  
Dew Point 44 °F    
Average Humidity 72    
Maximum Humidity 93    
Minimum Humidity 51    
Precipitation  
Precipitation 0.09 in 0.10 in 1.04 in (1957)
Month to date precipitation 0.36 1.13  
Year to date precipitation 16.38 12.97  
Snow  
Snow 0.00 in 0.00 in - ()
Month to date snowfall 0.0 0.0  
Since 1 July snowfall 0.0 0.0  
Snow Depth 0.00 in    
Sea Level Pressure  
Sea Level Pressure 29.93 in    
Wind  
Wind Speed 3 mph (South)    
Max Wind Speed 14 mph    
Max Gust Speed 18 mph    
Visibility 9 miles    
Events Rain    
T = Trace of Precipitation, MM = Missing Value Source: NWS Daily Summary

Daily Weather History Graph

Daily Weather History Graph

Search for Another Location

Airport or City:

Trip Planner

Search our weather history database for the weather conditions in past years. The results will help you decide how hot, cold, wet, or windy it might be!

Date:

Astronomy

Nov. 13, 2014 Rise Set
Actual Time 6:59 AM PST 4:51 PM PST
Civil Twilight 6:29 AM PST 5:21 PM PST
Nautical Twilight 5:55 AM PST 5:55 PM PST
Astronomical Twilight 5:22 AM PST 6:28 PM PST
Moon 11:14 PM PST (11/13) 12:21 PM PST (11/13)
Length of Visible Light 10h 51m
Length of Day
9h 51m
Waning Gibbous, 58% of the Moon is Illuminated
Nov 13
Waning Gibbous
Nov 14
Last Quarter
Nov 22
New
Nov 29
First Quarter
Dec 6
Full

Hourly Weather History & Observations

Time (PST) Temp. Windchill Dew Point Humidity Pressure Visibility Wind Dir Wind Speed Gust Speed Precip Events Conditions
12:53 AM 44.1 °F 40.8 °F 42.1 °F 93% 29.88 in 9.0 mi WNW 5.8 mph - 0.03 in Rain Light Rain
1:53 AM 45.0 °F - 42.1 °F 90% 29.86 in 6.0 mi Calm Calm - 0.01 in Rain Light Rain
2:53 AM 45.0 °F 43.5 °F 42.1 °F 90% 29.86 in 10.0 mi SSE 3.5 mph - 0.04 in   Overcast
3:39 AM 44.1 °F 42.5 °F 43.0 °F 96% 29.85 in 8.0 mi SE 3.5 mph - 0.01 in Rain Light Rain
3:46 AM 44.1 °F 42.5 °F 42.1 °F 93% 29.85 in 9.0 mi SSE 3.5 mph - 0.01 in Rain Light Rain
3:53 AM 44.1 °F 42.5 °F 43.0 °F 96% 29.86 in 10.0 mi South 3.5 mph - 0.01 in   Overcast
4:29 AM 44.1 °F 41.5 °F 42.1 °F 93% 29.84 in 9.0 mi ESE 4.6 mph - 0.00 in Rain Light Rain
4:38 AM 44.1 °F - 43.0 °F 96% 29.85 in 8.0 mi Calm Calm - 0.00 in   Overcast
4:53 AM 44.1 °F - 43.0 °F 96% 29.86 in 7.0 mi Calm Calm - 0.00 in Rain Light Rain
5:53 AM 45.0 °F - 43.0 °F 93% 29.86 in 10.0 mi Calm Calm - 0.01 in   Overcast
6:53 AM 44.1 °F 40.8 °F 43.0 °F 96% 29.89 in 8.0 mi SSE 5.8 mph - 0.00 in   Overcast
7:53 AM 44.1 °F - 42.1 °F 93% 29.93 in 6.0 mi Calm Calm - N/A   Mostly Cloudy
8:53 AM 46.0 °F - 43.0 °F 89% 29.95 in 8.0 mi Calm Calm - N/A   Overcast
9:20 AM 46.9 °F - 44.1 °F 90% 29.95 in 8.0 mi SSW 3.5 mph - N/A   Overcast
9:32 AM 46.9 °F - 44.1 °F 90% 29.95 in 7.0 mi South 3.5 mph - 0.00 in Rain Light Rain
9:53 AM 46.9 °F - 44.1 °F 90% 29.96 in 8.0 mi Calm Calm - 0.00 in   Overcast
10:53 AM 50.0 °F - 45.0 °F 83% 29.97 in 8.0 mi Calm Calm - N/A   Mostly Cloudy
11:53 AM 52.0 °F - 46.0 °F 80% 29.96 in 8.0 mi NNW 4.6 mph - N/A   Mostly Cloudy
12:53 PM 54.0 °F - 48.0 °F 80% 29.95 in 8.0 mi North 4.6 mph - N/A   Overcast
1:53 PM 57.0 °F - 48.0 °F 72% 29.95 in 10.0 mi ENE 3.5 mph - N/A   Overcast
2:53 PM 57.9 °F - 46.9 °F 67% 29.96 in 10.0 mi NNE 4.6 mph - N/A   Scattered Clouds
3:53 PM 60.1 °F - 43.0 °F 53% 29.96 in 10.0 mi West 10.4 mph - N/A   Scattered Clouds
4:53 PM 55.9 °F - 42.1 °F 60% 29.96 in 10.0 mi SW 4.6 mph - N/A   Scattered Clouds
5:53 PM 55.0 °F - 41.0 °F 59% 29.96 in 10.0 mi Calm Calm - N/A   Scattered Clouds
6:53 PM 52.0 °F - 45.0 °F 77% 29.96 in 10.0 mi South 5.8 mph - N/A   Overcast
7:53 PM 52.0 °F - 45.0 °F 77% 29.96 in 10.0 mi South 6.9 mph - N/A   Overcast
8:53 PM 51.1 °F - 46.0 °F 83% 29.98 in 10.0 mi Calm Calm - 0.00 in Rain Light Rain
9:53 PM 51.1 °F - 45.0 °F 80% 29.99 in 10.0 mi Calm Calm - 0.00 in   Overcast
10:53 PM 51.1 °F - 48.0 °F 89% 29.99 in 10.0 mi Calm Calm - 0.00 in Rain Light Rain
11:53 PM 51.1 °F - 46.9 °F 86% 29.98 in 10.0 mi Calm Calm - 0.00 in   Overcast